This demonstration page uses our WeatherBlox Daily Observations layout. Learn more.

Hourly Observations for January 2, 2018

Temp ( °F °C ) Dew Point ( °F °C ) Humidity (%) Winds ( mph kmh ) Pressure ( in mb ) Visibility ( mi km ) Precip ( " mm )
12:15 am 00:15 Clear -4 -19.8 -7 -21.6 86 86 SE 5 7 30.89 1046 10 16.0934 0 0
12:35 am 00:35 Clear -6 -21.1 -9 -22.8 86 86 Calm 30.86 1045 10 16.0934 0 0
12:55 am 00:55 Clear -5 -20.5 -8 -22.2 86 86 Calm 30.86 1045 10 16.0934 0 0
1:15 am 01:15 Clear -5 -20.8 -9 -22.7 85 85 Calm 30.86 1045 10 16.0934 0 0
1:35 am 01:35 Clear -5 -20.5 -8 -22.2 86 86 Calm 30.86 1045 10 16.0934 0 0
1:55 am 01:55 Clear -4 -20 -7 -21.5 88 88 SSE 3 6 30.86 1045 10 16.0934 0 0
2:15 am 02:15 Clear -4 -20.2 -8 -22 86 86 SSE 3 6 30.86 1045 10 16.0934 0 0
2:35 am 02:35 Clear -4 -20 -7 -21.5 88 88 SSE 6 9 30.86 1045 10 16.0934 0 0
2:55 am 02:55 Clear -4 -20.2 -7 -21.9 86 86 S 6 9 30.86 1045 10 16.0934 0 0
3:15 am 03:15 Clear -4 -20.2 -8 -22 86 86 Calm 30.86 1045 10 16.0934 0 0
3:35 am 03:35 Clear -5 -20.5 -8 -22.3 86 86 S 5 7 30.86 1045 10 16.0934 0 0
3:55 am 03:55 Clear -5 -20.5 -8 -22.3 86 86 S 3 6 30.86 1045 10 16.0934 0 0
4:15 am 04:15 Clear -5 -20.5 -8 -22.2 86 86 S 5 7 30.86 1045 10 16.0934 0 0
4:35 am 04:35 Clear -3 -19.2 -6 -21.1 85 85 SSW 8 13 30.83 1044 10 16.0934 0 0
4:55 am 04:55 Clear -2 -19.1 -6 -21.1 84 84 SSW 7 11 30.83 1044 10 16.0934 0 0
5:15 am 05:15 Clear -2 -19 -7 -21.4 81 81 SSW 8 13 30.83 1044 10 16.0934 0 0
5:35 am 05:35 Clear -1 -18.5 -6 -21 81 81 SSW 8 13 30.8 1043 10 16.0934 0 0
5:55 am 05:55 Clear -1 -18.3 -6 -21 80 80 SSW 8 13 30.8 1043 10 16.0934 0 0
6:15 am 06:15 Clear -1 -18.5 -6 -21.1 80 80 SSW 6 9 30.77 1042 10 16.0934 0 0
6:35 am 06:35 Clear -1 -18.3 -6 -21 80 80 SSW 8 13 30.77 1042 10 16.0934 0 0
6:55 am 06:55 Clear -1 -18.3 -6 -21 80 80 SW 9 15 30.77 1042 10 16.0934 0 0
7:15 am 07:15 Clear 0 -18 -5 -20.8 79 79 SW 8 13 30.77 1042 10 16.0934 0 0
7:35 am 07:35 Clear 0 -17.9 -5 -20.8 78 78 SW 7 11 30.77 1042 10 16.0934 0 0
7:55 am 07:55 Clear 0 -17.8 -5 -20.7 78 78 SW 8 13 30.77 1042 10 16.0934 0 0
8:15 am 08:15 Sunny 0 -17.8 -5 -20.6 79 79 SW 8 13 30.77 1042 10 16.0934 0 0
8:35 am 08:35 Sunny 0 -17.6 -5 -20.3 80 80 SW 12 19 30.77 1042 10 16.0934 0 0
8:55 am 08:55 Sunny 1 -17.1 -4 -20 78 78 SW 10 17 30.77 1042 10 16.0934 0 0
9:15 am 09:15 Sunny 2 -16.6 -4 -19.8 76 76 SW 9 15 30.77 1042 10 16.0934 0 0
9:35 am 09:35 Sunny 3 -16.1 -3 -19.5 75 75 SW 10 17 30.74 1041 10 16.0934 0 0
9:55 am 09:55 Sunny 5 -14.9 -2 -18.8 72 72 SW 13 20 30.74 1041 10 16.0934 0 0
10:15 am 10:15 Sunny 6 -14.5 -2 -19 69 69 WSW 12 19 30.74 1041 10 16.0934 0 0
10:35 am 10:35 Sunny 7 -13.7 0 -18 70 70 SW 14 22 30.68 1039 10 16.0934 0 0
10:55 am 10:55 Sunny 7 -13.7 0 -18 70 70 SW 14 22 30.68 1039 10 16.0934 0 0
11:15 am 11:15 Sunny 9 -12.8 1 -17.2 70 70 WSW 10 17 30.68 1039 10 16.0934 0 0
11:35 am 11:35 Sunny 10 -12 2 -16.5 69 69 SW 12 19 30.65 1038 10 16.0934 0 0
11:55 am 11:55 Sunny 11 -11.9 2 -16.5 69 69 WSW 10 17 30.65 1038 10 16.0934 0 0
12:15 pm 12:15 Sunny 12 -11 4 -15.8 68 68 WSW 10 17 30.59 1036 10 16.0934 0 0
12:35 pm 12:35 Sunny 14 -10.1 5 -15.2 67 67 WSW 9 15 30.56 1035 10 16.0934 0 0
12:55 pm 12:55 Sunny 14 -10 4 -15.3 66 66 WSW 14 22 30.56 1035 10 16.0934 0 0
1:15 pm 13:15 Sunny 15 -9.4 6 -14.7 66 66 WSW 14 22 30.5 1033 10 16.0934 0 0
1:35 pm 13:35 Sunny 16 -8.9 6 -14.3 65 65 SW 14 22 30.5 1033 10 16.0934 0 0
1:55 pm 13:55 Sunny 17 -8.2 7 -13.8 64 64 WSW 12 19 30.48 1032 10 16.0934 0 0
2:15 pm 14:15 Sunny 18 -7.6 8 -13.3 64 64 WSW 10 17 30.48 1032 10 16.0934 0 0
2:35 pm 14:35 Sunny 20 -6.9 8 -13.1 62 62 WSW 13 20 30.48 1032 10 16.0934 0 0
2:55 pm 14:55 Sunny 20 -6.8 9 -13 62 62 WSW 12 19 30.45 1031 10 16.0934 0 0
3:15 pm 15:15 Sunny 21 -6.2 9 -12.6 61 61 WSW 12 19 30.45 1031 10 16.0934 0 0
3:35 pm 15:35 Sunny 21 -6.1 10 -12.1 63 63 WSW 13 20 30.42 1030 10 16.0934 0 0
3:55 pm 15:55 Sunny 21 -6 11 -11.9 63 63 SW 12 19 30.42 1030 10 16.0934 0 0
4:15 pm 16:15 Sunny 21 -6 11 -11.5 65 65 WSW 10 17 30.42 1030 10 16.0934 0 0
4:35 pm 16:35 Sunny 21 -6 12 -11.3 66 66 WSW 8 13 30.42 1030 10 16.0934 0 0
4:55 pm 16:55 Sunny 21 -6 12 -11 68 68 WSW 10 17 30.39 1029 10 16.0934 0 0
5:15 pm 17:15 Sunny 21 -6 13 -10.8 69 69 WSW 10 17 30.39 1029 10 16.0934 0 0
5:35 pm 17:35 Clear 21 -6.3 13 -10.6 72 72 SW 9 15 30.36 1028 10 16.0934 0 0
5:55 pm 17:55 Clear 21 -6 13 -10.5 71 71 WSW 9 15 30.39 1029 10 16.0934 0 0
6:15 pm 18:15 Clear 21 -5.9 13 -10.3 71 71 WSW 14 22 30.36 1028 10 16.0934 0 0
6:35 pm 18:35 Clear 21 -6 14 -10.1 73 73 WSW 8 13 30.39 1029 10 16.0934 0 0
6:55 pm 18:55 Clear 22 -5.6 14 -9.8 73 73 WSW 10 17 30.36 1028 10 16.0934 0 0
7:15 pm 19:15 Partly Cloudy 22 -5.5 14 -9.8 72 72 W 12 19 30.36 1028 10 16.0934 0 0
7:35 pm 19:35 Mostly Cloudy 22 -5.3 15 -9.5 73 73 W 12 19 30.36 1028 10 16.0934 0 0
7:55 pm 19:55 Mostly Cloudy 23 -5.1 15 -9.3 73 73 W 13 20 30.36 1028 10 16.0934 0 0
8:15 pm 20:15 Mostly Cloudy 22 -5.3 15 -9.2 74 74 W 12 19 30.36 1028 10 16.0934 0 0
8:35 pm 20:35 Partly Cloudy 23 -4.8 16 -9.1 72 72 W 10 17 30.36 1028 10 16.0934 0 0
8:55 pm 20:55 Clear 23 -5 15 -9.2 73 73 WNW 9 15 30.36 1028 10 16.0934 0 0
9:15 pm 21:15 Clear 23 -5 15 -9.2 73 73 WNW 12 19 30.36 1028 10 16.0934 0 0
9:35 pm 21:35 Clear 24 -4.6 15 -9.5 69 69 NW 12 19 30.33 1027 10 16.0934 0 0
9:55 pm 21:55 Clear 23 -5.2 15 -9.5 72 72 WNW 10 17 30.36 1028 10 16.0934 0 0
10:15 pm 22:15 Clear 23 -5.1 15 -9.7 70 70 WNW 13 20 30.36 1028 10 16.0934 0 0
10:35 pm 22:35 Clear 22 -5.6 14 -9.8 73 73 NW 10 17 30.36 1028 10 16.0934 0 0
10:55 pm 22:55 Clear 22 -5.7 15 -9.7 74 74 NW 10 17 30.36 1028 10 16.0934 0 0
11:15 pm 23:15 Clear 22 -5.5 15 -9.7 73 73 WNW 9 15 30.36 1028 10 16.0934 0 0
11:35 pm 23:35 Clear 21 -6.2 14 -10 75 75 WNW 10 17 30.39 1029 10 16.0934 0 0
11:55 pm 23:55 Clear 20 -6.5 13 -10.3 75 75 WNW 8 13 30.36 1028 10 16.0934 0 0

Powered by AerisWeather